{"data":{"norad_id":62476,"epoch":"2026-05-25T03:24:13.737024Z","epoch_age_seconds":73164,"freshness":"FRESH","line1":"1 62476U 24254Q   26145.14182566  .00009859  00000+0  36733-3 0  9998","line2":"2 62476  42.9988 304.7562 0001233 275.1019  84.9691 15.27576873 79349","mean_motion":15.27576873,"eccentricity":0.0001233,"inclination_deg":42.9988,"raan_deg":304.7562,"arg_perigee_deg":275.1019,"mean_anomaly_deg":84.9691,"bstar":0.00036733,"rev_number":7934,"period_min":94.26694168078,"perigee_km":482.21247401841,"apogee_km":483.90444481871,"semimajor_km":6861.1954594186,"source":"CELESTRAK","updated_at":"2026-05-25T13:38:19.694236Z"}}